Weather History for KIML - August, 2013

Change the Weather History Date:

Friday, August 16, 2013

  Actual Average Record
Temperature  
Mean Temperature 73 °F 74 °F  
Max Temperature 83 °F 88 °F 105 °F (1937)
Min Temperature 63 °F 60 °F 50 °F (1897)
Degree Days  
Heating Degree Days 0 0  
Month to date heating degree days 0 0  
Since 1 June heating degree days 32 36  
Cooling Degree Days 8 9  
Month to date cooling degree days 128 167  
Year to date cooling degree days 749 751  
Since 1 June cooling degree days 681 707  
Growing Degree Days 23 (Base 50)    
Moisture  
Dew Point 62 °F    
Average Humidity 74    
Maximum Humidity 100    
Minimum Humidity 47    
Precipitation  
Precipitation 0.00 in 0.08 in 1.43 in (2010)
Sea Level Pressure  
Sea Level Pressure 30.08 in    
Wind  
Wind Speed 8 mph (ESE)    
Max Wind Speed 14 mph    
Max Gust Speed 18 mph    
Visibility 7 miles    
Events      
T = Trace of Precipitation, MM = Missing Value Source: NWS Daily Summary

Daily Weather History Graph

Daily Weather History Graph

Search for Another Location

Airport or City:

Trip Planner

Search our weather history database for the weather conditions in past years. The results will help you decide how hot, cold, wet, or windy it might be!

Date:

Astronomy

Aug. 16, 2013 Rise Set
Actual Time 5:58 AM MDT 7:42 PM MDT
Civil Twilight 5:29 AM MDT 8:11 PM MDT
Nautical Twilight 4:53 AM MDT 8:46 PM MDT
Astronomical Twilight 4:15 AM MDT 9:24 PM MDT
Moon 4:03 PM MDT (8/16) 1:02 AM MDT (8/16)
Length of Visible Light 14h 42m
Length of Day
13h 43m
Waxing Gibbous, 75% of the Moon is Illuminated
Aug 16
Waxing Gibbous
Aug 20
Full
Aug 28
Last Quarter
Sep 5
New
Sep 12
First Quarter

Hourly Weather History & Observations

Time (MDT) Temp. Heat Index Dew Point Humidity Pressure Visibility Wind Dir Wind Speed Gust Speed Precip Events Conditions
12:41 AM 64.4 °F - 64.4 °F 100% 30.14 in 4.0 mi ESE 10.4 mph - N/A   Overcast
12:53 AM 64.9 °F - 64.0 °F 97% 30.04 in 4.0 mi ESE 8.1 mph - N/A   Overcast
1:53 AM 64.0 °F - 63.0 °F 96% 30.04 in 4.0 mi ESE 8.1 mph - N/A   Overcast
2:53 AM 64.9 °F - 63.0 °F 93% 30.03 in 4.0 mi East 6.9 mph - N/A   Overcast
3:30 AM 64.4 °F - 62.6 °F 94% 30.13 in 5.0 mi ESE 4.6 mph - N/A   Overcast
3:53 AM 64.9 °F - 63.0 °F 93% 30.05 in 4.0 mi East 4.6 mph - N/A   Overcast
4:29 AM 64.4 °F - 62.6 °F 94% 30.13 in 4.0 mi East 3.5 mph - N/A   Overcast
4:53 AM 64.9 °F - 63.0 °F 93% 30.04 in 4.0 mi East 4.6 mph - N/A   Overcast
5:11 AM 64.4 °F - 62.6 °F 94% 30.12 in 4.0 mi East 4.6 mph - N/A   Overcast
5:53 AM 64.9 °F - 63.0 °F 93% 30.05 in 4.0 mi East 6.9 mph - N/A   Overcast
6:03 AM 64.4 °F - 62.6 °F 94% 30.14 in 4.0 mi East 6.9 mph - N/A   Overcast
6:53 AM 64.9 °F - 63.0 °F 93% 30.07 in 4.0 mi East 5.8 mph - N/A   Overcast
7:53 AM 66.0 °F - 63.0 °F 90% 30.09 in 5.0 mi East 6.9 mph - N/A   Overcast
8:53 AM 66.9 °F - 62.1 °F 84% 30.10 in 8.0 mi SE 8.1 mph - N/A   Overcast
9:53 AM 68.0 °F - 62.1 °F 81% 30.11 in 9.0 mi SE 11.5 mph - N/A   Overcast
10:53 AM 73.9 °F - 62.1 °F 66% 30.09 in 10.0 mi ESE 11.5 mph - N/A   Overcast
11:53 AM 73.9 °F - 61.0 °F 64% 30.09 in 10.0 mi SE 10.4 mph - N/A   Overcast
12:35 PM 75.2 °F - 62.6 °F 65% 30.16 in 10.0 mi ESE 12.7 mph - N/A   Overcast
12:53 PM 75.9 °F - 62.1 °F 62% 30.08 in 10.0 mi ESE 10.4 mph 16.1 mph N/A   Overcast
1:53 PM 80.1 °F 81.2 °F 62.1 °F 54% 30.07 in 10.0 mi East 9.2 mph - N/A   Overcast
2:53 PM 80.1 °F 81.1 °F 61.0 °F 52% 30.05 in 10.0 mi ESE 8.1 mph - N/A   Scattered Clouds
3:53 PM 82.0 °F 82.7 °F 61.0 °F 49% 30.03 in 10.0 mi SE 6.9 mph - N/A   Partly Cloudy
4:53 PM 81.0 °F 81.6 °F 60.1 °F 49% 30.02 in 10.0 mi SE 8.1 mph - N/A   Clear
5:53 PM 81.0 °F 81.7 °F 61.0 °F 50% 30.02 in 10.0 mi ESE 9.2 mph - N/A   Clear
6:53 PM 78.1 °F - 62.1 °F 58% 30.02 in 10.0 mi SE 9.2 mph - N/A   Clear
7:53 PM 71.1 °F - 62.1 °F 73% 30.05 in 10.0 mi ESE 6.9 mph - N/A   Clear
8:53 PM 66.9 °F - 62.1 °F 84% 30.08 in 10.0 mi ESE 6.9 mph - N/A   Clear
9:53 PM 66.0 °F - 61.0 °F 84% 30.10 in 10.0 mi East 5.8 mph - N/A   Clear
10:53 PM 64.9 °F - 63.0 °F 93% 30.09 in 9.0 mi ESE 6.9 mph - N/A   Clear
11:53 PM 64.0 °F - 62.1 °F 93% 30.10 in 7.0 mi ESE 6.9 mph - N/A   Clear